User: anonymous   Login
Location: Elstree
(51.6403°N, 0.2969°W)
Time: 22:13:19
(UTC+00:00)
Language:

SL-16 R/B - Orbit

View from above orbital plane
View from above orbital plane
View from above satellite
View from above satellite

Ground track
Ground track

The orbit data is extracted from the following two-line orbital elements,

1 31793U 07029B   21129.58131369 -.00000277  00000-0 -11935-3 0  9992
2 31793  70.9758 281.2776 0002261 263.5393 166.9771 14.14447976715755
Epoch (UTC): 09 May 2021 13:57:05
Eccentricity: 0.0002261
inclination: 70.9758°
perigee height: 842 km
apogee height: 846 km
right ascension of ascending node: 281.2776°
argument of perigee: 263.5393°
revolutions per day: 14.14447976
mean anomaly at epoch: 166.9771°
orbit number at epoch: 71575

The dashed part of the orbit path shows where the satellite is in the earth's shadow,  

DLR